Location: Newark
(53.3503°N, 9.6158°W)
Time: 16:13:27
(UTC+00:00)

N. Korean satellite - Visible Passes

Search period start: 22 October 2019 00:00
Search period end: 01 November 2019 00:00
Orbit: 455 x 508 km, 97.2° (Epoch: 21 October)

Date Brightness Start Highest point End Pass type
(mag) Time Alt. Az. Time Alt. Az. Time Alt. Az.
22 Oct 10.2 05:31:32 10° NE 05:33:30 14° E 05:35:28 10° ESE visible
23 Oct 7.1 06:38:21 10° NNE 06:41:59 68° ESE 06:45:38 10° S visible
23 Oct 10.2 18:55:30 10° WSW 18:57:02 12° W 18:58:35 10° WNW visible
24 Oct 8.4 06:13:12 10° NNE 06:16:35 36° E 06:20:00 10° SSE visible
24 Oct 9.4 18:28:43 10° SW 18:31:28 22° W 18:34:16 10° NW visible
25 Oct 9.6 05:48:18 10° NE 05:51:07 21° E 05:53:57 10° SE visible
25 Oct 8.1 18:02:43 10° S 18:05:59 40° W 18:09:20 10° NNW visible
26 Oct 10.3 05:24:05 10° ENE 05:25:33 12° E 05:27:01 10° ESE visible
27 Oct 7.5 06:30:29 10° NNE 06:34:06 56° E 06:37:44 10° S visible
27 Oct 10.0 18:46:58 10° SW 18:49:03 15° W 18:51:09 10° NW visible
28 Oct 8.8 06:05:23 10° NNE 06:08:41 30° E 06:11:59 10° SSE visible
28 Oct 9.1 18:20:31 10° SSW 18:23:30 26° W 18:26:33 10° NW visible
29 Oct 9.8 05:40:36 10° NE 05:43:10 18° E 05:45:45 10° SE visible
29 Oct 7.7 17:54:39 10° S 17:58:03 49° W 18:01:31 10° NNW visible
30 Oct 10.5 05:17:14 10° E 05:17:34 10° E 05:17:53 10° E visible
30 Oct 6.7 06:47:50 10° NNE 06:51:33 87° ESE 06:55:16 10° SSW visible
30 Oct 10.5 19:06:35 10° W 19:06:40 10° W 19:06:44 10° W visible
31 Oct 7.9 06:22:35 10° NNE 06:26:11 46° E 06:29:46 10° S visible
31 Oct 9.8 18:38:34 10° SW 18:41:02 18° W 18:43:33 10° NW visible
